Date,TemperatureHighF,TemperatureAvgF,TemperatureLowF,DewpointHighF,DewpointAvgF,DewpointLowF,HumidityHigh,HumidityAvg,HumidityLow,PressureMaxIn,PressureMinIn,WindSpeedMaxMPH,WindSpeedAvgMPH,GustSpeedMaxMPH,PrecipitationSumIn
2014-1-1,28,21,17,0,0,0,0,0,100,30.37,30.14,21,6,24,0.00
2014-1-2,20,8,-2,0,0,0,0,0,100,30.36,29.91,21,7,26,0.00
2014-1-3,17,4,-2,0,0,0,0,0,100,30.37,29.76,28,4,28,0.00
2014-1-4,25,14,0,0,0,0,0,0,100,30.48,30.21,19,4,20,0.00
2014-1-5,38,29,18,0,0,0,0,0,100,30.29,29.95,19,3,19,0.03
2014-1-6,53,40,29,0,0,0,0,0,100,29.95,29.23,24,7,24,0.62
2014-1-7,29,15,7,0,0,0,0,0,100,30.16,29.44,32,10,32,0.00
2014-1-8,23,14,7,0,0,0,0,0,100,30.42,30.16,24,9,24,0.00
2014-1-9,29,20,16,0,0,0,0,0,100,30.62,30.39,23,4,23,0.00
2014-1-10,34,25,13,0,0,0,0,0,100,30.59,30.26,12,1,12,0.00
2014-1-11,55,43,33,0,0,0,0,0,100,30.26,29.22,18,5,19,0.54
2014-1-12,53,44,36,0,0,0,0,0,100,29.92,29.22,30,7,30,0.01
2014-1-13,49,40,31,0,0,0,0,0,100,30.10,29.86,19,6,19,0.00
2014-1-14,48,44,40,0,0,0,0,0,100,29.87,29.56,17,4,18,0.81
2014-1-15,49,38,33,0,0,0,0,0,100,30.00,29.71,13,2,16,0.01
2014-1-16,37,34,30,0,0,0,0,0,100,29.92,29.84,14,1,14,0.00
2014-1-17,47,38,33,0,0,0,0,0,100,29.95,29.87,15,2,15,0.00
2014-1-18,38,33,31,0,0,0,0,0,100,29.91,29.61,12,2,12,0.42
2014-1-19,32,30,27,0,0,0,0,0,100,29.70,29.50,27,7,27,0.04
2014-1-20,39,31,18,0,0,0,0,0,100,29.87,29.46,23,8,23,0.13
2014-1-21,18,13,9,0,0,0,0,0,100,30.07,29.87,19,6,19,0.00
2014-1-22,21,11,6,0,0,0,0,0,100,29.89,29.62,18,8,21,0.00
2014-1-23,22,11,3,0,0,0,0,0,100,30.10,29.86,19,5,19,0.00
2014-1-24,19,11,3,0,0,0,0,0,100,30.22,30.02,24,7,24,0.00
2014-1-25,37,26,14,0,0,0,0,0,100,30.02,29.27,26,9,26,0.00
2014-1-26,25,20,14,0,0,0,0,0,100,29.87,29.29,29,8,29,0.00
2014-1-27,45,28,20,0,0,0,0,0,100,29.95,29.47,27,6,27,0.02
2014-1-28,23,17,11,0,0,0,0,0,100,30.28,29.95,18,5,18,0.00
2014-1-29,29,20,15,0,0,0,0,0,100,30.22,29.93,20,4,20,0.00
2014-1-30,33,22,13,0,0,0,0,0,100,30.42,30.18,15,5,15,0.00
2014-1-31,43,32,21,0,0,0,0,0,100,30.18,29.99,16,4,16,0.00
2014-2-1,47,36,29,0,0,0,0,0,100,30.32,30.01,17,3,17,0.00
2014-2-2,48,39,34,0,0,0,0,0,100,30.03,29.84,8,1,9,0.07
2014-2-3,38,31,25,0,0,0,0,0,100,30.28,30.02,15,2,15,0.00
2014-2-4,39,29,20,0,0,0,0,0,100,30.44,30.27,8,2,10,0.03
2014-2-5,35,28,21,0,0,0,0,0,100,30.33,29.62,29,6,29,0.00
2014-2-6,33,22,18,0,0,0,0,0,100,30.25,29.94,18,3,18,0.25
2014-2-7,34,23,14,0,0,0,0,0,100,30.22,30.11,19,6,19,0.00
2014-2-8,33,26,15,0,0,0,0,0,100,30.26,30.10,19,3,19,0.01
2014-2-9,39,26,20,0,0,0,0,0,100,30.16,29.92,12,2,12,0.01
2014-2-10,31,23,15,0,0,0,0,0,100,30.19,29.88,18,4,18,0.08
2014-2-11,28,17,10,0,0,0,0,0,100,30.40,30.19,20,5,20,0.00
2014-2-12,35,17,4,0,0,0,0,0,100,30.56,30.40,15,2,16,0.00
2014-2-13,33,27,19,0,0,0,0,0,100,30.41,29.02,33,8,33,0.15
2014-2-14,35,32,30,0,0,0,0,0,100,29.69,28.79,33,6,33,0.51
2014-2-15,39,30,26,0,0,0,0,0,100,29.84,29.45,20,2,20,0.00
2014-2-16,33,26,19,0,0,0,0,0,100,29.93,29.43,34,10,34,0.06
2014-2-17,29,19,12,0,0,0,0,0,100,30.34,29.93,27,8,30,0.00
2014-2-18,32,21,8,0,0,0,0,0,100,30.36,29.87,20,2,20,0.00
2014-2-19,37,30,23,0,0,0,0,0,100,30.08,29.70,13,1,13,0.20
2014-2-20,47,36,27,0,0,0,0,0,100,30.22,29.79,21,3,21,0.53
2014-2-21,39,36,33,0,0,0,0,0,100,30.16,29.63,14,3,14,1.11
2014-2-22,48,39,31,0,0,0,0,0,100,29.92,29.79,25,7,25,0.00
2014-2-23,46,40,34,0,0,0,0,0,100,29.97,29.74,14,3,15,0.00
2014-2-24,39,32,21,0,0,0,0,0,100,29.92,29.71,24,7,24,0.00
2014-2-25,33,23,18,0,0,0,0,0,100,29.96,29.84,24,4,24,0.00
2014-2-26,33,20,14,0,0,0,0,0,100,29.93,29.73,24,6,24,0.00
2014-2-27,34,20,10,0,0,0,0,0,100,29.87,29.58,29,4,29,0.00
2014-2-28,29,17,8,0,0,0,0,0,100,30.44,29.85,20,6,29,0.00
2014-3-1,35,23,7,0,0,0,0,0,100,30.45,30.06,15,5,29,0.00
2014-3-2,39,32,26,0,0,0,0,0,100,30.06,29.96,14,2,29,0.00
2014-3-3,26,19,13,0,0,0,0,0,100,30.29,30.00,21,6,29,0.00
2014-3-4,33,21,7,0,0,0,0,0,100,30.37,30.23,14,3,29,0.00
2014-3-5,25,21,16,0,0,0,0,0,100,30.50,30.24,10,2,29,0.00
2014-3-6,36,19,6,0,0,0,0,0,100,30.64,30.50,10,2,29,0.00
2014-3-7,44,27,10,0,0,0,0,0,100,30.51,29.96,11,1,29,0.00
2014-3-8,54,36,23,0,0,0,0,0,100,29.96,29.67,21,3,29,0.00
2014-3-9,44,34,27,0,0,0,0,0,100,29.92,29.84,24,4,29,0.00
2014-3-10,47,34,26,0,0,0,0,0,100,29.86,29.62,16,4,29,0.02
2014-3-11,61,41,33,0,0,0,0,0,100,29.71,29.48,16,3,29,0.06
2014-3-12,41,38,35,0,0,0,0,0,100,29.71,29.03,15,4,29,0.52
2014-3-13,35,21,15,0,0,0,0,0,100,29.89,28.99,33,10,33,0.02
2014-3-14,39,26,11,0,0,0,0,0,100,30.14,29.88,21,6,21,0.05
2014-3-15,57,43,35,0,0,0,0,0,100,29.88,29.61,28,8,28,0.01
2014-3-16,39,30,20,0,0,0,0,0,100,30.20,29.82,26,8,26,0.00
2014-3-17,33,22,14,0,0,0,0,0,100,30.20,30.04,19,2,19,0.00
2014-3-18,40,27,15,0,0,0,0,0,100,30.36,30.15,14,3,14,0.00
2014-3-19,49,34,20,0,0,0,0,0,100,30.39,29.98,18,3,18,0.00
2014-3-20,52,41,37,0,0,0,0,0,100,30.00,29.56,24,5,24,0.86
2014-3-21,46,38,32,0,0,0,0,0,100,29.98,29.69,33,7,33,20.64
2014-3-22,54,37,28,0,0,0,0,0,100,30.01,29.63,25,4,33,16.34
2014-3-23,46,34,21,0,0,0,0,0,100,30.07,29.89,23,6,23,0.00
2014-3-24,35,23,15,0,0,0,0,0,100,30.15,30.02,28,5,28,0.00
2014-3-25,41,29,19,0,0,0,0,0,100,30.14,29.95,20,5,20,0.00
2014-3-26,34,30,23,0,0,0,0,0,100,29.96,29.55,36,13,42,0.00
2014-3-27,45,31,19,0,0,0,0,0,100,30.28,29.96,31,8,31,0.00
2014-3-28,57,44,35,0,0,0,0,0,100,30.22,29.91,22,6,22,0.05
2014-3-29,49,43,38,0,0,0,0,0,100,30.25,29.98,20,4,20,0.58
2014-3-30,38,37,34,0,0,0,0,0,100,30.03,29.64,41,9,41,2.37
2014-3-31,42,36,33,0,0,0,0,0,100,29.99,29.68,22,5,22,0.48
2014-4-1,53,42,35,0,0,0,0,0,100,30.09,29.99,21,3,21,0.00
2014-4-2,47,38,32,0,0,0,0,0,100,30.12,30.03,13,2,13,0.00
2014-4-3,56,40,31,0,0,0,0,0,100,30.13,30.02,19,2,19,0.01
2014-4-4,50,40,32,0,0,0,0,0,100,30.18,29.92,15,5,15,0.32
2014-4-5,56,43,38,0,0,0,0,0,100,29.92,29.66,25,6,25,0.21
2014-4-6,59,45,34,0,0,0,0,0,100,30.15,29.89,20,4,20,0.00
2014-4-7,54,43,34,0,0,0,0,0,100,30.23,29.94,11,2,13,0.05
2014-4-8,59,45,42,0,0,0,0,0,100,29.95,29.27,26,3,26,0.76
2014-4-9,57,46,37,0,0,0,0,0,100,29.94,29.45,28,6,28,0.00
2014-4-10,66,48,31,0,0,0,0,0,100,30.13,29.94,25,7,25,0.00
2014-4-11,75,56,48,0,0,0,0,0,100,29.98,29.87,19,4,21,0.04
2014-4-12,72,55,44,0,0,0,0,0,100,30.18,29.96,17,3,18,0.07
2014-4-13,47,44,41,0,0,0,0,0,100,30.28,30.02,19,4,19,0.01
2014-4-14,78,58,40,0,0,0,0,0,100,30.03,29.81,36,9,36,0.00
2014-4-15,69,59,44,0,0,0,0,0,100,29.85,29.53,36,12,36,0.32
2014-4-16,45,36,29,0,0,0,0,0,100,30.62,29.66,23,9,29,0.19
2014-4-17,44,36,28,0,0,0,0,0,100,30.82,30.61,25,5,25,0.00
2014-4-18,46,38,28,0,0,0,0,0,100,30.66,30.24,19,3,19,0.00
2014-4-19,61,46,32,0,0,0,0,0,100,30.38,30.14,26,5,26,0.00
2014-4-20,56,43,33,0,0,0,0,0,100,30.52,30.32,14,4,14,0.00
2014-4-21,60,47,36,0,0,0,0,0,100,30.32,29.79,23,4,23,0.00
2014-4-22,61,52,44,0,0,0,0,0,100,29.79,29.42,18,2,18,0.02
2014-4-23,60,51,45,0,0,0,0,0,100,29.56,29.39,31,7,31,0.08
2014-4-24,58,48,41,0,0,0,0,0,100,29.89,29.55,36,12,36,0.00
2014-4-25,60,46,39,0,0,0,0,0,100,29.99,29.82,18,5,18,0.00
2014-4-26,45,43,42,0,0,0,0,0,100,29.86,29.78,17,2,17,0.21
2014-4-27,49,43,41,0,0,0,0,0,100,30.01,29.84,12,1,12,0.09
2014-4-28,56,47,38,0,0,0,0,0,100,30.23,29.97,21,4,23,0.00
2014-4-29,46,42,41,0,0,0,0,0,100,30.54,30.23,27,10,27,0.00
2014-4-30,47,43,41,0,0,0,0,0,100,30.55,30.20,14,3,14,0.19
2014-5-1,58,47,42,0,0,0,0,0,100,30.20,29.64,14,2,14,0.90
2014-5-2,70,57,47,0,0,0,0,0,100,29.77,29.62,28,3,28,0.01
2014-5-3,70,54,47,0,0,0,0,0,100,29.84,29.69,18,2,18,0.00
2014-5-4,65,54,48,0,0,0,0,0,100,29.69,29.47,32,6,32,0.01
2014-5-5,67,55,47,0,0,0,0,0,100,29.83,29.57,23,6,23,0.00
2014-5-6,67,53,44,0,0,0,0,0,100,30.01,29.79,21,4,21,0.00
2014-5-7,70,52,43,0,0,0,0,0,100,30.14,30.01,20,3,20,0.00
2014-5-8,67,52,42,0,0,0,0,0,100,30.18,30.06,14,3,14,0.00
2014-5-9,52,49,48,0,0,0,0,0,100,30.26,30.07,15,2,15,0.04
2014-5-10,79,62,49,0,0,0,0,0,100,30.07,29.70,28,4,28,0.10
2014-5-11,84,70,61,0,0,0,0,0,100,29.98,29.72,21,4,21,0.00
2014-5-12,86,64,51,0,0,0,0,0,100,30.13,29.93,30,4,30,0.00
2014-5-13,52,48,45,0,0,0,0,0,100,30.33,30.13,22,3,22,0.00
2014-5-14,60,52,46,0,0,0,0,0,100,30.33,30.26,12,3,12,0.00
2014-5-15,68,57,51,0,0,0,0,0,100,30.28,30.17,18,2,18,0.00
2014-5-16,66,56,52,0,0,0,0,0,100,30.20,29.98,19,5,19,0.12
2014-5-17,79,62,52,0,0,0,0,0,100,30.02,29.85,24,4,24,0.77
2014-5-18,69,58,49,0,0,0,0,0,100,30.08,29.99,14,2,14,0.00
2014-5-19,71,56,48,0,0,0,0,0,100,30.04,29.96,24,6,24,0.14
2014-5-20,72,58,49,0,0,0,0,0,100,29.98,29.91,17,2,17,0.01
2014-5-21,71,58,49,0,0,0,0,0,100,29.99,29.92,12,2,12,0.00
2014-5-22,57,52,50,0,0,0,0,0,100,29.96,29.87,8,1,9,0.15
2014-5-23,60,53,51,0,0,0,0,0,100,29.98,29.87,12,2,13,0.14
2014-5-24,65,55,51,0,0,0,0,0,100,30.05,29.95,14,2,14,0.03
2014-5-25,66,56,50,0,0,0,0,0,100,30.08,29.96,16,2,16,0.00
2014-5-26,81,68,55,0,0,0,0,0,100,29.96,29.74,20,3,20,0.00
2014-5-27,69,55,48,0,0,0,0,0,100,29.96,29.77,20,4,20,0.25
2014-5-28,48,47,43,0,0,0,0,0,100,30.21,29.93,26,6,26,0.10
2014-5-29,65,51,39,0,0,0,0,0,100,30.24,30.14,11,3,11,0.01
2014-5-30,69,54,45,0,0,0,0,0,100,30.14,29.98,18,3,18,0.01
2014-5-31,62,54,49,0,0,0,0,0,100,30.27,30.05,16,2,16,0.02
2014-6-1,68,57,46,0,0,0,0,0,100,30.33,30.20,14,3,14,0.00
2014-6-2,86,65,52,0,0,0,0,0,100,30.20,29.96,18,3,18,0.00
2014-6-3,73,61,55,0,0,0,0,0,100,30.00,29.90,12,2,14,0.00
2014-6-4,58,55,52,0,0,0,0,0,100,29.90,29.78,12,1,12,0.01
2014-6-5,60,56,54,0,0,0,0,0,100,29.79,29.64,19,1,19,0.05
2014-6-6,80,65,54,0,0,0,0,0,100,29.83,29.66,18,4,18,0.11
2014-6-7,88,70,58,0,0,0,0,0,100,29.89,29.82,14,3,14,0.02
2014-6-8,85,70,60,0,0,0,0,0,100,29.92,29.83,12,3,12,0.00
2014-6-9,88,72,63,0,0,0,0,0,100,29.95,29.85,18,4,18,0.00
2014-6-10,71,64,59,0,0,0,0,0,100,30.10,29.91,17,1,17,0.03
2014-6-11,72,61,54,0,0,0,0,0,100,30.19,30.09,13,1,13,0.00
2014-6-12,69,61,58,0,0,0,0,0,100,30.18,30.08,16,2,16,0.00
2014-6-13,60,58,57,0,0,0,0,0,100,30.08,29.79,15,0,15,0.06
2014-6-14,76,62,57,0,0,0,0,0,100,29.87,29.77,12,2,12,0.01
2014-6-15,81,68,55,0,0,0,0,0,100,30.02,29.86,22,7,22,0.00
2014-6-16,78,65,55,0,0,0,0,0,100,30.13,30.00,15,5,15,0.00
2014-6-17,82,70,62,0,0,0,0,0,100,30.02,29.81,16,4,16,0.01
2014-6-18,83,75,64,0,0,0,0,0,100,29.88,29.64,30,8,30,0.00
2014-6-19,86,75,63,0,0,0,0,0,100,29.94,29.85,20,6,20,0.00
2014-6-20,77,65,55,0,0,0,0,0,100,29.95,29.85,25,5,25,0.00
2014-6-21,79,64,51,0,0,0,0,0,100,29.95,29.84,18,3,18,0.00
2014-6-22,78,63,51,0,0,0,0,0,100,30.02,29.90,11,3,11,0.00
2014-6-23,79,64,53,0,0,0,0,0,100,30.13,30.02,17,2,17,0.00
2014-6-24,80,68,59,0,0,0,0,0,100,30.14,29.95,20,4,20,0.00
2014-6-25,94,76,62,0,0,0,0,0,100,29.96,29.79,12,4,15,0.00
2014-6-26,69,64,58,0,0,0,0,0,100,29.99,29.75,13,3,13,0.02
2014-6-27,79,67,55,0,0,0,0,0,100,30.18,29.98,9,3,13,0.01
2014-6-28,83,68,55,0,0,0,0,0,100,30.25,30.18,10,2,10,0.00
2014-6-29,80,70,59,0,0,0,0,0,100,30.23,30.05,17,3,17,0.00
2014-6-30,96,79,63,0,0,0,0,0,100,30.06,29.86,16,6,16,0.00
2014-7-1,93,80,69,0,0,0,0,0,100,29.88,29.73,20,6,20,0.00
2014-7-2,89,76,65,0,0,0,0,0,100,29.91,29.74,18,5,23,0.00
2014-7-3,82,70,64,0,0,0,0,0,100,30.01,29.87,25,3,25,0.03
2014-7-4,75,66,61,0,0,0,0,0,100,29.98,29.77,9,1,10,0.01
2014-7-5,81,69,56,0,0,0,0,0,100,29.93,29.70,32,9,32,0.04
2014-7-6,89,75,63,0,0,0,0,0,100,29.95,29.80,25,8,25,0.04
2014-7-7,90,74,66,0,0,0,0,0,100,29.83,29.63,24,6,24,0.24
2014-7-8,93,77,65,0,0,0,0,0,100,29.76,29.63,23,5,23,0.28
2014-7-9,92,79,68,0,0,0,0,0,100,29.93,29.58,21,6,21,0.03
2014-7-10,86,73,64,0,0,0,0,0,100,30.12,29.89,15,2,15,0.27
2014-7-11,80,68,62,0,0,0,0,0,100,30.22,30.12,12,4,12,0.00
2014-7-12,81,68,58,0,0,0,0,0,100,30.20,30.08,14,2,14,0.00
2014-7-13,89,75,66,0,0,0,0,0,100,30.08,29.84,23,6,23,0.06
2014-7-14,89,74,64,0,0,0,0,0,100,29.87,29.81,17,4,17,0.00
2014-7-15,89,68,60,0,0,0,0,0,100,29.84,29.70,29,3,29,0.47
2014-7-16,74,65,59,0,0,0,0,0,100,29.81,29.73,11,1,11,0.68
2014-7-17,80,67,61,0,0,0,0,0,100,30.04,29.81,16,3,16,0.00
2014-7-18,83,68,58,0,0,0,0,0,100,30.20,30.04,14,3,14,0.00
2014-7-19,74,65,59,0,0,0,0,0,100,30.26,30.20,10,1,10,0.00
2014-7-20,74,66,60,0,0,0,0,0,100,30.21,30.14,11,2,11,0.00
2014-7-21,77,65,57,0,0,0,0,0,100,30.20,30.13,10,0,10,0.00
2014-7-22,81,70,60,0,0,0,0,0,100,30.13,29.93,16,3,16,0.00
2014-7-23,96,80,67,0,0,0,0,0,100,29.93,29.68,21,6,21,0.16
2014-7-24,77,69,64,0,0,0,0,0,100,29.87,29.71,13,2,13,0.00
2014-7-25,87,71,57,0,0,0,0,0,100,29.95,29.87,14,3,14,0.00
2014-7-26,89,74,62,0,0,0,0,0,100,29.95,29.81,17,5,17,0.00
2014-7-27,76,67,63,0,0,0,0,0,100,29.86,29.64,14,4,14,0.29
2014-7-28,73,66,62,0,0,0,0,0,100,29.65,29.40,25,4,25,0.68
2014-7-29,82,67,61,0,0,0,0,0,100,29.91,29.50,23,5,23,0.00
2014-7-30,75,66,58,0,0,0,0,0,100,30.02,29.91,9,2,9,0.00
2014-7-31,79,66,57,0,0,0,0,0,100,30.13,30.01,18,2,18,0.03
2014-8-1,80,66,60,0,0,0,0,0,100,30.20,30.13,26,2,26,0.82
2014-8-2,70,65,62,0,0,0,0,0,100,30.21,30.11,12,1,12,0.00
2014-8-3,75,64,58,0,0,0,0,0,100,30.13,30.03,10,2,10,0.00
2014-8-4,80,68,61,0,0,0,0,0,100,30.04,29.95,11,2,12,0.00
2014-8-5,84,72,64,0,0,0,0,0,100,30.00,29.85,16,3,16,0.00
2014-8-6,87,73,66,0,0,0,0,0,100,29.86,29.74,19,4,20,0.00
2014-8-7,86,67,59,0,0,0,0,0,100,29.90,29.80,14,4,14,0.19
2014-8-8,88,70,56,0,0,0,0,0,100,29.99,29.90,14,4,14,0.00
2014-8-9,85,71,60,0,0,0,0,0,100,30.06,29.98,11,4,12,0.00
2014-8-10,88,71,60,0,0,0,0,0,100,30.12,30.05,11,3,11,0.00
2014-8-11,86,72,62,0,0,0,0,0,100,30.13,30.05,13,3,13,0.00
2014-8-12,82,70,64,0,0,0,0,0,100,30.11,30.02,19,4,19,0.00
2014-8-13,66,65,63,0,0,0,0,0,100,30.03,29.58,29,4,29,2.29
2014-8-14,79,67,59,0,0,0,0,0,100,29.84,29.61,13,2,15,0.01
2014-8-15,80,64,56,0,0,0,0,0,100,29.88,29.82,16,3,16,0.00
2014-8-16,80,69,58,0,0,0,0,0,100,29.94,29.87,18,5,18,0.00
2014-8-17,83,69,61,0,0,0,0,0,100,29.88,29.74,19,4,19,0.00
2014-8-18,80,67,59,0,0,0,0,0,100,29.85,29.75,20,5,20,0.00
2014-8-19,80,64,54,0,0,0,0,0,100,29.95,29.84,14,3,14,0.00
2014-8-20,82,66,56,0,0,0,0,0,100,30.04,29.94,9,2,10,0.00
2014-8-21,76,64,55,0,0,0,0,0,100,30.09,30.03,9,1,9,0.00
2014-8-22,68,63,60,0,0,0,0,0,100,30.10,30.06,19,1,19,0.13
2014-8-23,74,64,57,0,0,0,0,0,100,30.12,30.08,11,1,12,0.00
2014-8-24,79,67,55,0,0,0,0,0,100,30.13,30.07,10,3,10,0.00
2014-8-25,84,72,62,0,0,0,0,0,100,30.13,30.07,9,3,10,0.00
2014-8-26,81,71,63,0,0,0,0,0,100,30.13,30.00,17,4,17,0.00
2014-8-27,95,79,67,0,0,0,0,0,100,30.00,29.79,15,4,15,0.00
2014-8-28,82,72,62,0,0,0,0,0,100,29.95,29.75,22,5,22,0.00
2014-8-29,76,64,56,0,0,0,0,0,100,30.26,29.95,12,4,12,0.00
2014-8-30,75,65,56,0,0,0,0,0,100,30.28,30.09,20,5,20,0.00
2014-8-31,88,75,65,0,0,0,0,0,100,30.10,29.89,20,5,20,0.31
2014-9-1,88,73,67,0,0,0,0,0,100,29.95,29.88,10,2,13,0.00
2014-9-2,86,73,64,0,0,0,0,0,100,29.90,29.68,30,2,50,0.86
2014-9-3,85,74,66,0,0,0,0,0,100,30.04,29.66,17,2,18,0.00
2014-9-4,81,69,59,0,0,0,0,0,100,30.17,30.04,12,3,12,0.00
2014-9-5,93,77,64,0,0,0,0,0,100,30.12,29.92,19,4,19,0.00
2014-9-6,92,76,66,0,0,0,0,0,100,29.92,29.50,22,4,22,0.38
2014-9-7,78,66,59,0,0,0,0,0,100,30.19,29.88,14,2,15,0.04
2014-9-8,76,63,54,0,0,0,0,0,100,30.39,30.19,12,2,12,0.00
2014-9-9,70,63,53,0,0,0,0,0,100,30.36,30.18,17,2,20,0.00
2014-9-10,72,63,58,0,0,0,0,0,100,30.19,30.02,14,1,14,0.00
2014-9-11,74,67,61,0,0,0,0,0,100,30.02,29.73,16,2,16,0.01
2014-9-12,74,63,55,0,0,0,0,0,100,30.23,29.85,20,4,20,0.00
2014-9-13,63,56,48,0,0,0,0,0,100,30.28,30.09,21,4,21,0.18
2014-9-14,69,57,48,0,0,0,0,0,100,30.20,30.08,20,4,20,0.00
2014-9-15,68,55,45,0,0,0,0,0,100,30.23,30.07,13,3,13,0.00
2014-9-16,66,57,52,0,0,0,0,0,100,30.09,29.93,9,1,10,0.00
2014-9-17,75,60,50,0,0,0,0,0,100,30.00,29.91,15,2,15,0.00
2014-9-18,76,61,48,0,0,0,0,0,100,30.14,29.90,17,4,18,0.00
2014-9-19,63,51,42,0,0,0,0,0,100,30.41,30.14,16,4,16,0.00
2014-9-20,71,57,39,0,0,0,0,0,100,30.39,30.05,19,3,19,0.00
2014-9-21,72,63,58,0,0,0,0,0,100,30.06,29.51,18,3,18,0.17
2014-9-22,74,64,51,0,0,0,0,0,100,30.05,29.48,27,5,27,0.01
2014-9-23,74,58,45,0,0,0,0,0,100,30.39,30.05,16,3,16,0.00
2014-9-24,70,58,48,0,0,0,0,0,100,30.62,30.39,13,3,13,0.00
2014-9-25,57,51,47,0,0,0,0,0,100,30.54,30.23,6,0,6,0.00
2014-9-26,73,59,47,0,0,0,0,0,100,30.24,30.12,9,1,9,0.00
2014-9-27,88,67,54,0,0,0,0,0,100,30.15,30.08,10,1,10,0.00
2014-9-28,83,68,56,0,0,0,0,0,100,30.13,29.92,11,2,12,0.00
2014-9-29,74,62,56,0,0,0,0,0,100,30.02,29.91,23,5,23,0.00
2014-9-30,58,56,54,0,0,0,0,0,100,30.04,29.98,23,3,23,0.01
2014-10-1,57,56,55,0,0,0,0,0,100,30.12,30.01,21,4,21,0.50
2014-10-2,57,54,48,0,0,0,0,0,100,30.18,30.10,24,5,24,0.24
2014-10-3,60,54,46,0,0,0,0,0,100,30.14,29.89,14,4,18,0.00
2014-10-4,60,58,53,0,0,0,0,0,100,29.89,29.51,14,2,14,0.32
2014-10-5,66,57,48,0,0,0,0,0,100,29.92,29.50,18,4,22,0.00
2014-10-6,66,54,40,0,0,0,0,0,100,30.14,29.92,16,4,16,0.00
2014-10-7,67,62,58,0,0,0,0,0,100,30.14,29.95,21,7,21,0.01
2014-10-8,74,64,58,0,0,0,0,0,100,29.96,29.65,18,6,20,0.05
2014-10-9,67,56,48,0,0,0,0,0,100,29.95,29.82,23,6,23,0.00
2014-10-10,66,54,44,0,0,0,0,0,100,30.11,29.95,16,3,16,0.00
2014-10-11,54,47,45,0,0,0,0,0,100,30.13,30.05,10,0,10,0.18
2014-10-12,66,50,39,0,0,0,0,0,100,30.28,30.10,12,3,12,0.00
2014-10-13,66,54,40,0,0,0,0,0,100,30.35,30.22,19,2,19,0.00
2014-10-14,79,63,56,0,0,0,0,0,100,30.24,30.12,18,2,18,0.00
2014-10-15,73,62,57,0,0,0,0,0,100,30.13,29.96,18,2,18,0.00
2014-10-16,63,61,59,0,0,0,0,0,100,29.96,29.63,20,4,20,1.00
2014-10-17,73,62,57,0,0,0,0,0,100,29.66,29.57,20,4,20,0.01
2014-10-18,72,60,55,0,0,0,0,0,100,29.64,29.45,18,3,18,0.20
2014-10-19,58,50,42,0,0,0,0,0,100,29.92,29.54,23,8,23,0.00
2014-10-20,60,47,37,0,0,0,0,0,100,30.02,29.92,19,5,19,0.00
2014-10-21,61,52,46,0,0,0,0,0,100,30.00,29.92,13,2,13,0.02
2014-10-22,54,50,48,0,0,0,0,0,100,30.06,29.84,43,11,43,0.76
2014-10-23,53,50,48,0,0,0,0,0,100,29.84,29.62,37,10,37,2.08
2014-10-24,53,49,46,0,0,0,0,0,100,29.72,29.64,18,5,20,0.03
2014-10-25,67,54,45,0,0,0,0,0,100,29.73,29.45,16,4,16,0.00
2014-10-26,59,52,45,0,0,0,0,0,100,29.65,29.39,23,6,23,0.00
2014-10-27,60,50,44,0,0,0,0,0,100,30.01,29.64,26,5,26,0.00
2014-10-28,64,50,42,0,0,0,0,0,100,30.08,29.92,14,1,14,0.00
2014-10-29,63,54,49,0,0,0,0,0,100,29.92,29.76,17,2,17,0.13
2014-10-30,60,48,41,0,0,0,0,0,100,29.99,29.83,16,2,16,0.00
2014-10-31,54,47,39,0,0,0,0,0,100,30.05,29.97,19,4,19,0.00
2014-11-1,44,41,38,0,0,0,0,0,100,29.97,29.80,19,6,19,0.36
2014-11-2,40,38,34,0,0,0,0,0,100,29.82,29.59,29,10,30,0.13
2014-11-3,51,42,35,0,0,0,0,0,100,30.03,29.76,25,7,28,0.00
2014-11-4,59,47,35,0,0,0,0,0,100,30.12,29.97,14,1,14,0.00
2014-11-5,65,54,46,0,0,0,0,0,100,30.09,29.91,22,4,22,0.00
2014-11-6,50,47,43,0,0,0,0,0,100,30.09,29.47,22,3,22,0.47
2014-11-7,48,43,38,0,0,0,0,0,100,29.75,29.42,28,8,28,0.01
2014-11-8,51,41,33,0,0,0,0,0,100,29.93,29.75,27,5,27,0.00
2014-11-9,55,45,38,0,0,0,0,0,100,30.00,29.85,11,3,11,0.00
2014-11-10,61,45,34,0,0,0,0,0,100,30.19,29.99,19,2,19,0.00
2014-11-11,60,48,37,0,0,0,0,0,100,30.18,29.97,17,2,17,0.00
2014-11-12,54,50,42,0,0,0,0,0,100,29.98,29.83,16,1,16,0.00
2014-11-13,54,43,36,0,0,0,0,0,100,30.06,29.94,13,2,13,0.05
2014-11-14,44,36,30,0,0,0,0,0,100,30.08,29.87,16,3,16,0.17
2014-11-15,40,32,27,0,0,0,0,0,100,30.31,30.08,19,4,19,0.00
2014-11-16,43,36,27,0,0,0,0,0,100,30.36,30.10,16,4,16,0.00
2014-11-17,47,39,35,0,0,0,0,0,100,30.10,29.42,16,2,16,1.13
2014-11-18,39,33,26,0,0,0,0,0,100,29.87,29.41,28,8,28,0.00
2014-11-19,40,30,24,0,0,0,0,0,100,30.10,29.87,26,7,26,0.00
2014-11-20,48,36,29,0,0,0,0,0,100,30.04,29.72,26,7,26,0.00
2014-11-21,35,29,25,0,0,0,0,0,100,30.37,29.89,27,7,27,0.00
2014-11-22,41,33,23,0,0,0,0,0,100,30.39,30.00,24,8,24,0.00
2014-11-23,61,49,40,0,0,0,0,0,100,30.12,30.01,18,5,18,0.00
2014-11-24,63,54,42,0,0,0,0,0,100,30.08,29.52,30,9,30,0.38
2014-11-25,61,55,44,0,0,0,0,0,100,30.09,29.64,14,6,14,0.00
2014-11-26,46,38,32,0,0,0,0,0,100,30.20,29.68,15,2,19,0.38
2014-11-27,35,33,30,0,0,0,0,0,100,30.00,29.66,15,2,15,0.35
2014-11-28,62,28,22,0,0,0,0,0,100,30.06,24.94,18,4,18,0.16
2014-11-29,34,26,19,0,0,0,0,0,100,0.00,0.00,12,3,12,0.03
2014-11-30,53,43,30,0,0,0,0,0,100,0.00,0.00,20,5,20,0.01
2014-12-1,63,50,37,0,0,0,0,0,100,0.00,0.00,20,7,20,0.00
2014-12-2,40,35,31,0,0,0,0,0,100,0.00,0.00,19,6,20,0.06
2014-12-3,44,36,30,0,0,0,0,0,100,0.00,0.00,20,2,20,0.70
2014-12-4,44,34,26,0,0,0,0,0,100,0.00,0.00,19,4,19,0.00
2014-12-5,41,29,22,0,0,0,0,0,100,0.00,0.00,23,4,23,0.06
2014-12-6,44,37,33,0,0,0,0,0,100,0.00,0.00,19,3,19,0.98
2014-12-7,36,30,17,0,0,0,0,0,100,0.00,0.00,22,4,22,0.03
2014-12-8,26,19,14,0,0,0,0,0,100,0.00,0.00,14,6,14,0.00
2014-12-9,45,36,25,0,0,0,0,0,100,0.00,0.00,38,8,38,5.50
2014-12-10,42,38,37,0,0,0,0,0,100,0.00,0.00,31,5,31,0.29
2014-12-11,39,35,32,0,0,0,0,0,100,0.00,0.00,18,6,18,0.07
2014-12-12,36,33,30,0,0,0,0,0,100,0.00,40.00,11,4,12,0.02
2014-12-13,35,32,30,0,0,0,0,0,100,0.00,0.00,14,6,16,0.03
2014-12-14,44,36,31,0,0,0,0,0,100,0.00,0.00,14,5,14,0.00
2014-12-15,47,35,30,0,0,0,0,0,100,0.00,0.00,11,1,11,0.00
2014-12-16,44,37,33,0,0,0,0,0,100,0.00,0.00,10,1,10,0.01
2014-12-17,45,42,39,0,0,0,0,0,100,0.00,0.00,18,4,18,0.49
2014-12-18,43,38,34,0,0,0,0,0,100,0.00,0.00,27,8,27,0.06
2014-12-19,43,33,27,0,0,0,0,0,100,0.00,0.00,17,4,17,0.00
2014-12-20,34,30,24,0,0,0,0,0,100,0.00,0.00,19,5,19,0.00
2014-12-21,35,30,25,0,0,0,0,0,100,0.00,0.00,17,1,17,0.00
2014-12-22,42,36,31,0,0,0,0,0,100,0.00,0.00,15,2,15,0.15
2014-12-23,43,42,39,0,0,0,0,0,100,0.00,0.00,14,6,18,0.65
2014-12-24,43,40,39,0,0,0,0,0,100,0.00,0.00,14,3,15,0.61
2014-12-25,56,46,40,0,0,0,0,0,100,0.00,0.00,25,5,25,0.21
2014-12-26,50,42,35,0,0,0,0,0,100,0.00,0.00,20,4,20,0.00
2014-12-27,52,42,35,0,0,0,0,0,100,0.00,0.00,16,2,16,0.00
2014-12-28,49,44,38,0,0,0,0,0,100,0.00,0.00,17,5,17,0.08
2014-12-29,43,34,26,0,0,0,0,0,100,0.00,0.00,20,4,20,0.00
2014-12-30,29,23,17,0,0,0,0,0,100,0.00,0.00,22,4,22,0.00
2014-12-31,31,22,15,0,0,0,0,0,100,0.00,0.00,20,3,20,0.00
2015-1-1,33,26,19,0,0,0,0,0,100,0.00,0.00,24,9,24,0.00
2015-1-2,41,32,24,0,0,0,0,0,100,0.00,0.00,24,6,24,0.00